Find Starlink 5636

NORAD ID: 55454 Int'l Des: 2023-015 Owner: SPXS Country: US Constellation: starlink operational
LEOCIRCULAR

Live Position

Loading 3D Globe...

About Starlink 5636

Description loading...

Upcoming Passes

Passes for default location (London). Set your location on the main map for personalized predictions.

Altitude History

Loading altitude history...

Two-Line Element Set

1 55454U 23015F 26121.77958962 .00000937 00000-0 44597-4 0 9991
2 55454 43.0013 28.6962 0001090 256.6811 103.3919 15.26744137178842
Epoch: May 1, 2026 • Age: 7 hours

Current Status

Altitude 485.4 km
Velocity 7.62 km/s
Sub-Earth Point -1.95°S, 37.7°W
Launch Date Feb 2, 2023
Age 3.2 years
Type internet

Technical Details

Classification Payload
Mass 305.00 kg
Dry Mass 290.00 kg
Total Mass 305.00 kg
Length 0.20 m
Diameter 2.80 m
Span 9.00 m
Shape Box + pan
Manufacturer SPXS
Bus Type Starlink
Phase Status In Orbit
Owner/State SPXS/US

Most Searched